This demonstration page uses our WeatherBlox Daily Observations layout. Learn more.

40.92945, -100.16068

Hourly Observations for March 15, 2018

Temp ( °F °C ) Dew Point ( °F °C ) Humidity (%) Winds ( mph kmh ) Pressure ( in mb ) Visibility ( mi km ) Precip ( " mm )
12:15 am 00:15 Clear 42 5.4 26 -3.4 53 53 ESE 5 7 29.83 1010 10 16.0934 0 0
12:35 am 00:35 Clear 41 5.2 26 -3.1 55 55 E 6 9 29.83 1010 10 16.0934 0 0
12:55 am 00:55 Clear 39 4 26 -3.3 59 59 E 5 7 29.85 1011 10 16.0934 0 0
1:15 am 01:15 Clear 38 3.4 26 -3.2 62 62 E 3 6 29.83 1010 10 16.0934 0 0
1:35 am 01:35 Clear 38 3.2 27 -3 64 64 E 7 11 29.83 1010 10 16.0934 0 0
1:55 am 01:55 Clear 39 3.8 26 -3.1 61 61 E 6 9 29.83 1010 10 16.0934 0 0
2:15 am 02:15 Clear 41 4.8 28 -2.5 60 60 SE 5 7 29.8 1009 10 16.0934 0 0
2:35 am 02:35 Clear 42 5.5 27 -3 55 55 SE 6 9 29.8 1009 10 16.0934 0 0
2:55 am 02:55 Clear 39 3.9 26 -3.4 59 59 E 5 7 29.8 1009 10 16.0934 0 0
3:15 am 03:15 Clear 37 3 26 -3.3 64 64 E 6 9 29.8 1009 10 16.0934 0 0
3:35 am 03:35 Clear 37 3 27 -2.8 66 66 E 5 7 29.8 1009 10 16.0934 0 0
3:55 am 03:55 Clear 38 3.2 27 -2.7 66 66 ESE 6 9 29.8 1009 10 16.0934 0 0
4:15 am 04:15 Clear 38 3.3 27 -2.7 65 65 ESE 6 9 29.77 1008 10 16.0934 0 0
4:35 am 04:35 Clear 36 2.1 27 -2.7 71 71 ESE 6 9 29.77 1008 10 16.0934 0 0
4:55 am 04:55 Clear 37 2.8 27 -2.8 67 67 ESE 3 6 29.77 1008 10 16.0934 0 0
5:15 am 05:15 Clear 38 3.2 26 -3.1 64 64 ESE 5 7 29.77 1008 10 16.0934 0 0
5:35 am 05:35 Clear 37 2.7 27 -3 66 66 ESE 5 7 29.77 1008 10 16.0934 0 0
5:55 am 05:55 Clear 38 3.5 27 -2.8 64 64 E 6 9 29.77 1008 10 16.0934 0 0
6:15 am 06:15 Clear 38 3.1 26 -3.1 64 64 E 5 7 29.77 1008 10 16.0934 0 0
6:35 am 06:35 Clear 36 2.4 26 -3.5 65 65 ESE 5 7 29.77 1008 10 16.0934 0 0
6:55 am 06:55 Clear 34 1.2 26 -3.6 71 71 Calm 29.77 1008 10 16.0934 0 0
7:15 am 07:15 Clear 32 0 26 -3.6 77 77 Calm 29.8 1009 10 16.0934 0 0
7:35 am 07:35 Clear 34 0.9 26 -3.4 73 73 E 5 7 29.77 1008 10 16.0934 0 0
7:55 am 07:55 Sunny 35 1.5 26 -3.5 70 70 E 3 6 29.77 1008 10 16.0934 0 0
8:15 am 08:15 Sunny 33 0.4 26 -3.5 75 75 E 3 6 29.8 1009 10 16.0934 0 0
8:40 am 08:40 Sunny 36 2 29 -1.9 76 76 E 5 7 29.77 1008 10 16.0934 0 0
8:55 am 08:55 Sunny 38 3.4 29 -1.5 71 71 ENE 5 7 29.77 1008 10 16.0934 0 0
9:15 am 09:15 Sunny 42 5.4 30 -1.1 63 63 ENE 3 6 29.74 1007 10 16.0934 0 0
9:35 am 09:35 Sunny 44 6.6 30 -1.2 58 58 E 6 9 29.74 1007 10 16.0934 0 0
9:55 am 09:55 Sunny 46 7.7 29 -1.4 53 53 E 9 15 29.71 1006 10 16.0934 0 0
10:15 am 10:15 Sunny 48 8.8 30 -1.3 49 49 E 9 15 29.71 1006 10 16.0934 0 0
10:35 am 10:35 Sunny 49 9.3 29 -1.4 47 47 E 10 17 29.71 1006 10 16.0934 0 0
10:55 am 10:55 Sunny 50 10 30 -1.2 46 46 E 10 17 29.71 1006 10 16.0934 0 0
11:15 am 11:15 Sunny 51 10.8 30 -1.3 43 43 E 12 19 29.68 1005 10 16.0934 0 0
11:35 am 11:35 Sunny 53 11.9 29 -1.6 39 39 E 10 17 29.65 1004 10 16.0934 0 0
11:55 am 11:55 Sunny 55 13 29 -1.6 37 37 E 13 20 29.65 1004 10 16.0934 0 0
12:15 pm 12:15 Sunny 57 13.8 29 -1.5 35 35 E 12 19 29.62 1003 10 16.0934 0 0
12:35 pm 12:35 Sunny 58 14.5 29 -1.6 33 33 E 15 24 29.62 1003 10 16.0934 0 0
12:55 pm 12:55 Sunny 60 15.4 29 -1.5 32 32 E 17 28 29.62 1003 10 16.0934 0 0
1:15 pm 13:15 Sunny 61 16 29 -1.6 30 30 E 16 26 29.62 1003 10 16.0934 0 0
1:35 pm 13:35 Sunny 61 16.2 30 -1.2 31 31 E 18 30 29.62 1003 10 16.0934 0 0
1:55 pm 13:55 Sunny 63 17.1 30 -1 29 29 E 13 20 29.59 1002 10 16.0934 0 0
2:15 pm 14:15 Sunny 64 17.7 30 -1.1 28 28 E 18 30 29.56 1001 10 16.0934 0 0
2:35 pm 14:35 Sunny 64 18 30 -1 28 28 ESE 20 31 29.56 1001 10 16.0934 0 0
2:55 pm 14:55 Sunny 65 18.1 30 -1 28 28 E 22 35 29.56 1001 10 16.0934 0 0
3:15 pm 15:15 Sunny 65 18.6 30 -0.9 27 27 E 18 30 29.53 1000 10 16.0934 0 0
3:35 pm 15:35 Sunny 66 18.8 31 -0.8 27 27 E 20 31 29.53 1000 10 16.0934 0 0
3:55 pm 15:55 Sunny 66 18.7 30 -1 27 27 ESE 23 37 29.53 1000 10 16.0934 0 0
4:15 pm 16:15 Sunny 66 19 30 -1 26 26 E 22 35 29.53 1000 10 16.0934 0 0
4:35 pm 16:35 Sunny 67 19.3 31 -0.8 26 26 E 24 39 29.53 1000 10 16.0934 0 0
4:55 pm 16:55 Sunny 67 19.3 31 -0.8 26 26 ESE 22 35 29.53 1000 10 16.0934 0 0
5:15 pm 17:15 Sunny 67 19.3 31 -0.8 26 26 ESE 23 37 29.47 998 10 16.0934 0 0
5:35 pm 17:35 Sunny 67 19.2 31 -0.6 26 26 ESE 24 39 29.47 998 10 16.0934 0 0
5:55 pm 17:55 Sunny 67 19.2 31 -0.4 27 27 E 21 33 29.47 998 10 16.0934 0 0
6:15 pm 18:15 Sunny 66 19 31 -0.4 27 27 E 20 31 29.5 999 10 16.0934 0 0
6:35 pm 18:35 Sunny 66 18.7 32 -0.2 28 28 E 22 35 29.5 999 10 16.0934 0 0
6:55 pm 18:55 Sunny 65 18.2 32 -0.2 29 29 E 18 30 29.5 999 10 16.0934 0 0
7:15 pm 19:15 Sunny 63 17.4 32 -0.2 31 31 E 18 30 29.5 999 10 16.0934 0 0
7:35 pm 19:35 Sunny 62 16.5 31 -0.4 32 32 E 18 30 29.5 999 10 16.0934 0 0
7:55 pm 19:55 Clear 60 15.7 31 -0.5 33 33 E 18 30 29.5 999 10 16.0934 0 0
8:15 pm 20:15 Clear 58 14.5 31 -0.5 36 36 ENE 20 31 29.53 1000 10 16.0934 0 0
8:35 pm 20:35 Partly Cloudy 56 13.6 31 -0.6 38 38 E 23 37 29.53 1000 10 16.0934 0 0
8:55 pm 20:55 Partly Cloudy 55 12.7 31 -0.5 40 40 ENE 23 37 29.53 1000 10 16.0934 0 0
9:15 pm 21:15 Clear 54 12 31 -0.5 42 42 ENE 25 41 29.56 1001 10 16.0934 0 0
9:35 pm 21:35 Clear 52 11.1 31 -0.6 45 45 E 25 41 29.56 1001 10 16.0934 0 0
9:55 pm 21:55 Clear 50 10.1 30 -1 46 46 E 30 48 29.56 1001 10 16.0934 0 0
10:15 pm 22:15 Clear 49 9.6 29 -1.7 46 46 E 28 44 29.53 1000 10 16.0934 0 0
10:35 pm 22:35 Clear 48 9.1 28 -2.1 46 46 E 31 50 29.53 1000 10 16.0934 0 0
10:55 pm 22:55 Clear 48 8.9 28 -2.4 45 45 E 31 50 29.53 1000 10 16.0934 0 0
11:15 pm 23:15 Clear 47 8.5 27 -2.6 46 46 E 29 46 29.56 1001 10 16.0934 0 0
11:35 pm 23:35 Clear 47 8.2 27 -2.6 47 47 E 28 44 29.53 1000 10 16.0934 0 0
11:55 pm 23:55 Clear 47 8.2 27 -2.6 47 47 E 30 48 29.53 1000 10 16.0934 0 0

Powered by AerisWeather